Regional Weather Roundup
Issued by NWS

Home | Current Version | Previous Version | Graphics & Text | Print | Product List | Glossary On
Versions: 1 2 3 4 5 6 7 8 9 10 11 12 13 14 15 16 17 18 19 20 21 22 23 24 25 26 27 28 29 30 31 32 33 34 35 36 37 38 39 40 41 42 43 44 45 46 47 48 49 50
000
ASUS43 KLMK 200810
RWRKY
KENTUCKY REGIONAL WEATHER ROUNDUP
NATIONAL WEATHER SERVICE LOUISVILLE KY
400 AM EDT FRI APR 20 2018

NOTE "FAIR" INDICATES FEW OR NO CLOUDS BELOW 12,000 FEET
WITH NO SIGNIFICANT WEATHER AND/OR OBSTRUCTIONS TO VISIBILITY.

KYZ001>023-026-027-061>063-070>075-200900-
WESTERN AND SOUTH CENTRAL KENTUCKY

CITY           SKY/WX    TMP DP  RH WIND       PRES   REMARKS
PADUCAH        FAIR      41  32  70 CALM      30.38S
HENDERSON      FAIR      42  27  55 N7        30.41S
OWENSBORO      FAIR      43  24  47 NE7       30.40S
HOPKINSVILLE   FAIR      38  32  78 N6        30.36R WCI  34
BOWLING GREEN  FAIR      35  33  92 CALM      30.37R
GLASGOW        FAIR      32  31  97 CALM      30.36R
$$

KYZ024-025-028>034-038-045-046-053-200900-
NORTH CENTRAL KENTUCKY

CITY           SKY/WX    TMP DP  RH WIND       PRES   REMARKS
LOUISVILLE/SDF FAIR      42  23  46 N12       30.39R
LOUISVILLE/LOU FAIR      41  24  51 N5        30.39R
FORT KNOX      FAIR      40  23  50 N7        30.38R WCI  35
$$

KYZ035>037-039>044-047>052-055>060-089>105-200900-
NORTHEAST KENTUCKY

CITY           SKY/WX    TMP DP  RH WIND       PRES   REMARKS
LEXINGTON      FAIR      38  26  62 N7        30.36R WCI  33
COVINGTON      FAIR      35  27  72 N8        30.37R WCI  29
FRANKFORT      FAIR      37  26  64 N6        30.36R WCI  32
$$

KYZ054-064>069-076>088-106>120-200900-
SOUTHEAST KENTUCKY

CITY           SKY/WX    TMP DP  RH WIND       PRES   REMARKS
JACKSON        FAIR      38  29  70 W5        30.33R WCI  34
LONDON         FAIR      31  29  92 CALM      30.34R
SOMERSET       FAIR      32  32 100 CALM      30.37R
MIDDLESBORO    FAIR      31  31 100 CALM      30.36R
MONTICELLO     FAIR      27  24  89 N8        30.37R WCI  19
$$





USA.gov is the U.S. government's official web portal to all federal, state and local government web resources and services.